Regional Weather Roundup
Issued by NWS

Home | Current Version | Previous Version | Text Only | Print | Product List | Glossary On
Versions: 1 2 3 4 5 6 7 8 9 10 11 12 13 14 15 16 17 18 19 20 21 22 23 24 25 26 27 28 29 30 31 32 33 34 35 36 37 38 39 40 41 42 43 44 45 46 47 48 49 50
000
ASUS43 KLMK 011402
RWRKY
KENTUCKY REGIONAL WEATHER ROUNDUP
NATIONAL WEATHER SERVICE LOUISVILLE KY
1000 AM EDT FRI AUG 01 2014

NOTE "FAIR" INDICATES FEW OR NO CLOUDS BELOW 12,000 FEET
WITH NO SIGNIFICANT WEATHER AND/OR OBSTRUCTIONS TO VISIBILITY.

KYZ001>023-026-027-061>063-070>075-011500-
WESTERN AND SOUTH CENTRAL KENTUCKY

CITY           SKY/WX    TMP DP  RH WIND       PRES   REMARKS
PADUCAH        PTSUNNY   77  64  64 N5        30.09R
HENDERSON      SUNNY     72  64  78 NE5       30.09S
OWENSBORO      SUNNY     75  62  64 CALM      30.10S
HOPKINSVILLE   SUNNY     74  62  64 E2        30.09R
BOWLING GREEN  SUNNY     74  61  63 E3        30.10S
GLASGOW        NOT AVBL
$$

KYZ024-025-028>034-038-045-046-053-011500-
NORTH CENTRAL KENTUCKY

CITY           SKY/WX    TMP DP  RH WIND       PRES   REMARKS
LOUISVILLE/SDF MOSUNNY   77  62  59 CALM      30.10F
LOUISVILLE/LOU SUNNY     75  62  64 CALM      30.11F
FORT KNOX      SUNNY     74  61  63 E3        30.10S
$$

KYZ035>037-039>044-047>052-055>060-089>105-011500-
NORTHEAST KENTUCKY

CITY           SKY/WX    TMP DP  RH WIND       PRES   REMARKS
LEXINGTON      MOSUNNY   77  62  59 NE3       30.12F
COVINGTON      MOSUNNY   76  62  62 N3        30.13S
FRANKFORT      SUNNY     73  63  70 CALM      30.11S
$$

KYZ054-064>069-076>088-106>120-011500-
SOUTHEAST KENTUCKY

CITY           SKY/WX    TMP DP  RH WIND       PRES   REMARKS
JACKSON        PTSUNNY   74  64  71 CALM      30.13F
LONDON         PTSUNNY   73  63  70 CALM      30.13F
SOMERSET       NOT AVBL
MIDDLESBORO    PTSUNNY   68  63  84 CALM      30.14S
MONTICELLO     SUNNY     73  65  76 CALM      30.13S
$$




USA.gov is the U.S. government's official web portal to all federal, state and local government web resources and services.